Weather History for Sheridan, WY

Change the Weather History Date:

Wednesday, February 6, 2013

  Actual Average Record
Temperature  
Mean Temperature 32 °F 25 °F  
Max Temperature 41 °F 37 °F 59 °F (1934)
Min Temperature 23 °F 13 °F -28 °F (2014)
Degree Days  
Heating Degree Days 33 40  
Month to date heating degree days 208 240  
Since 1 July heating degree days 4403 4700  
Cooling Degree Days 0 0  
Month to date cooling degree days 0 0  
Year to date cooling degree days 0 0  
Moisture  
Dew Point 22 °F    
Average Humidity 71    
Maximum Humidity 88    
Minimum Humidity 54    
Precipitation  
Precipitation 0.00 in 0.02 in 0.41 in (1916)
Month to date precipitation 0.04 0.12  
Year to date precipitation 1.00 0.68  
Sea Level Pressure  
Sea Level Pressure 29.97 in    
Wind  
Wind Speed 8 mph (NW)    
Max Wind Speed 26 mph    
Max Gust Speed 34 mph    
Visibility 10 miles    
Events      
T = Trace of Precipitation, MM = Missing Value Source: NWS Daily Summary

Daily Weather History Graph

Daily Weather History Graph

Search for Another Location

Airport:

Trip Planner

Search our weather history database for the weather conditions in past years. The results will help you decide how hot, cold, wet, or windy it might be!

Date:

Astronomy

Feb. 06, 2013 Rise Set
Actual Time 7:20 AM MST 5:24 PM MST
Civil Twilight 6:49 AM MST 5:54 PM MST
Nautical Twilight 6:15 AM MST 6:29 PM MST
Astronomical Twilight 5:41 AM MST 7:03 PM MST
Moon 4:12 AM MST (2/6) 1:40 PM MST (2/6)
Length of Visible Light 11h 04m
Length of Day
10h 03m
Waning Crescent, 16% of the Moon is Illuminated
Feb 6
Waning Crescent
Feb 10
New
Feb 17
First Quarter
Feb 25
Full
Mar 4
Last Quarter

Hourly Weather History & Observations

Time (MST) Temp. Windchill Dew Point Humidity Pressure Visibility Wind Dir Wind Speed Gust Speed Precip Events Conditions
12:53 AM 28.0 °F - 21.9 °F 78% 29.80 in 10.0 mi North - - N/A   Clear
1:53 AM 25.0 °F - 19.9 °F 81% 29.80 in 10.0 mi Calm Calm - N/A   Clear
2:53 AM 23.0 °F 17.0 °F 19.0 °F 85% 29.81 in 10.0 mi North 4.6 mph 18.4 mph N/A   Clear
3:53 AM 24.1 °F 13.1 °F 19.0 °F 81% 29.81 in 10.0 mi NE 11.5 mph 19.6 mph N/A   Clear
4:53 AM 25.0 °F 13.6 °F 19.0 °F 78% 29.85 in 10.0 mi NNW 12.7 mph 21.9 mph N/A   Clear
5:53 AM 28.0 °F 17.0 °F 21.0 °F 75% 29.88 in 10.0 mi NNE 13.8 mph 26.5 mph N/A   Overcast
6:18 AM 28.4 °F - 21.2 °F 74% 29.80 in 10.0 mi Calm Calm - N/A   Overcast
6:53 AM 27.0 °F 23.0 °F 21.0 °F 78% 29.93 in 10.0 mi Variable 3.5 mph - N/A   Overcast
7:45 AM 35.6 °F 26.6 °F 24.8 °F 65% 29.84 in 10.0 mi West 13.8 mph 32.2 mph N/A   Overcast
7:53 AM 36.0 °F 26.3 °F 24.1 °F 62% 29.94 in 10.0 mi WNW 16.1 mph 32.2 mph N/A   Overcast
8:53 AM 35.1 °F 26.4 °F 24.1 °F 64% 29.98 in 10.0 mi NW 12.7 mph 34.5 mph N/A   Overcast
9:53 AM 36.0 °F 23.7 °F 26.1 °F 67% 30.00 in 10.0 mi NW 26.5 mph 34.5 mph N/A   Overcast
10:53 AM 37.0 °F 29.8 °F 26.1 °F 65% 30.00 in 10.0 mi ENE 10.4 mph 18.4 mph N/A   Overcast
11:14 AM 39.2 °F 34.2 °F 24.8 °F 56% 29.91 in 10.0 mi Variable 6.9 mph 24.2 mph N/A   Overcast
11:53 AM 39.0 °F 34.8 °F 26.1 °F 60% 30.00 in 10.0 mi North 5.8 mph - N/A   Overcast
12:53 PM 39.0 °F 31.8 °F 25.0 °F 57% 29.98 in 10.0 mi NNW 11.5 mph 34.5 mph N/A   Scattered Clouds
1:53 PM 37.0 °F 31.0 °F 24.1 °F 59% 30.00 in 10.0 mi North 8.1 mph - N/A   Overcast
2:53 PM 37.0 °F - 23.0 °F 57% 30.02 in 10.0 mi North - - N/A   Mostly Cloudy
3:00 PM 39.2 °F 37.0 °F 21.2 °F 49% 29.90 in 25.0 mi SW 3.5 mph - N/A   Scattered Clouds
3:53 PM 34.0 °F - 26.1 °F 73% 30.04 in 10.0 mi North - - N/A   Partly Cloudy
3:59 PM 35.6 °F - 24.8 °F 65% 29.90 in 25.0 mi SSW 2.3 mph - N/A   Scattered Clouds
4:53 PM 32.0 °F - 23.0 °F 69% 30.05 in 10.0 mi North - - N/A   Mostly Cloudy
4:57 PM 37.4 °F 33.8 °F 21.2 °F 52% 29.94 in 25.0 mi WSW 4.6 mph - N/A   Mostly Cloudy
5:53 PM 36.0 °F - 23.0 °F 59% 30.07 in 10.0 mi North - - N/A   Overcast
5:55 PM 37.4 °F 27.8 °F 23.0 °F 56% 29.96 in 25.0 mi WNW 17.3 mph - N/A   Mostly Cloudy
6:53 PM 34.0 °F - 23.0 °F 64% 30.07 in 10.0 mi North - - N/A   Scattered Clouds
6:55 PM 35.6 °F 27.5 °F 23.0 °F 60% 29.98 in 25.0 mi West 11.5 mph - N/A   Mostly Cloudy
7:53 PM 35.1 °F - 21.9 °F 59% 30.06 in 10.0 mi North - - N/A   Overcast
8:09 PM 35.6 °F 28.0 °F 21.2 °F 56% 30.00 in 25.0 mi WSW 10.4 mph - N/A   Mostly Cloudy
8:53 PM 35.1 °F - 21.0 °F 57% 30.08 in 10.0 mi North - - N/A   Mostly Cloudy
9:01 PM 35.6 °F - 19.4 °F 52% 30.01 in 25.0 mi NW 2.3 mph - N/A   Mostly Cloudy
9:53 PM 28.0 °F - 17.1 °F 63% 30.12 in 10.0 mi North - - N/A   Clear
10:00 PM 33.8 °F 29.6 °F 15.8 °F 48% 30.02 in 25.0 mi West 4.6 mph - N/A   Scattered Clouds
10:53 PM 28.0 °F - 16.0 °F 61% 30.12 in 10.0 mi North - - N/A   Clear
11:53 PM 28.9 °F - 14.0 °F 54% 30.14 in 10.0 mi North - - N/A   Clear